Date String (YYYY-MM-DD hh:mm:ss) UTC,Instrument flags,Ambient pressure (hPa),Sample flow (lpm),Bypass flow (lpm),Sample temperature (°C),Ambient temperature (°C),ASC tube jacket temperature (°C),LED temperature (°C),Box temperature (°C),Sample RH (%),Span deviation,Mass concentration (μg/m³),Mass concentration (μg/m³),Mass concentration (μg/m³)
DateTimeUTC,F1_M11,P_M11,Q1_M11,Q2_M11,T1_M11,T2_M11,T3_M11,T4_M11,T5_M11,U1_M11,ZSPAN_M11,X0_M11,X2_M11,X1_M11
2023-01-04 01:00:00,,0817.5,5.00,0.00,22.2,20.8,00.0,31.1,23.9,12.7,0000.0,0013.71,0008.79,0008.40
2023-01-04 01:01:00,,0817.5,5.01,0.00,22.2,20.8,00.0,31.1,23.9,12.7,0000.0,0013.31,0008.94,0008.55
2023-01-04 01:02:00,,0817.4,5.00,0.00,22.2,20.8,00.0,31.1,23.9,12.7,0000.0,0013.22,0009.10,0008.71
2023-01-04 01:03:00,,0817.5,5.01,0.00,22.2,20.7,00.0,31.1,23.8,12.7,0000.0,0013.46,0009.22,0008.84
2023-01-04 01:04:00,,0817.5,5.00,0.00,22.2,20.8,00.0,31.1,23.8,12.8,0000.0,0013.53,0009.31,0008.93
2023-01-04 01:05:00,,0817.4,5.01,0.00,22.2,21.4,00.0,31.0,24.0,12.7,0000.0,0013.78,0009.38,0009.01
2023-01-04 01:06:00,,0817.5,5.00,0.00,22.3,22.3,00.0,31.0,24.3,12.7,0000.0,0013.90,0009.44,0009.07
2023-01-04 01:07:00,,0817.5,5.00,0.00,22.4,22.7,00.0,31.0,24.4,12.7,0000.0,0013.90,0009.45,0009.10
2023-01-04 01:08:00,,0817.4,4.99,0.00,22.5,22.4,00.0,31.1,24.4,12.7,0000.0,0014.30,0009.51,0009.14
2023-01-04 01:09:00,,0817.5,5.01,0.00,22.5,22.1,00.0,31.2,24.3,12.7,0000.0,0014.64,0009.58,0009.18
2023-01-04 01:10:00,,0817.5,5.00,0.00,22.5,21.8,00.0,31.2,24.3,12.7,0000.0,0014.59,0009.67,0009.24
2023-01-04 01:11:00,,0817.5,5.00,0.00,22.5,21.6,00.0,31.2,24.3,12.7,0000.0,0014.51,0009.72,0009.30
2023-01-04 01:12:00,,0817.6,5.00,0.00,22.5,21.4,00.0,31.2,24.3,12.7,0000.0,0014.72,0009.79,0009.36
2023-01-04 01:13:00,,0817.5,5.00,0.00,22.4,21.3,00.0,31.2,24.2,12.7,0000.0,0015.37,0009.85,0009.43
2023-01-04 01:14:00,,0817.5,5.01,0.00,22.4,21.2,00.0,31.2,24.2,12.7,0000.0,0015.47,0009.95,0009.52
2023-01-04 01:15:00,,0817.4,5.01,0.00,22.4,21.1,00.0,31.2,24.2,12.7,0000.0,0015.60,0010.07,0009.65
2023-01-04 01:16:00,,0817.5,5.00,0.00,22.4,21.0,00.0,31.2,24.1,12.7,0000.0,0015.92,0010.18,0009.77
2023-01-04 01:17:00,,0817.4,5.00,0.00,22.4,21.0,00.0,31.2,24.1,12.7,0000.0,0015.96,0010.25,0009.85
2023-01-04 01:18:00,,0817.5,5.01,0.00,22.4,21.0,00.0,31.2,24.1,12.7,0000.0,0016.07,0010.34,0009.96
2023-01-04 01:19:00,,0817.5,5.00,0.00,22.4,21.0,00.0,31.2,24.1,12.7,0000.0,0015.99,0010.44,0010.07
2023-01-04 01:20:00,,0817.6,5.00,0.00,22.3,20.9,00.0,31.2,24.1,12.7,0000.0,0016.05,0010.50,0010.15
2023-01-04 01:21:00,,0817.6,4.99,0.00,22.3,20.9,00.0,31.2,24.0,12.7,0000.0,0016.44,0010.55,0010.21
2023-01-04 01:22:00,,0817.6,5.00,0.00,22.3,20.8,00.0,31.2,24.0,12.7,0000.0,0016.59,0010.61,0010.25
2023-01-04 01:23:00,,0817.6,5.01,0.00,22.3,20.8,00.0,31.2,24.0,12.7,0000.0,0016.47,0010.65,0010.29
2023-01-04 01:24:00,,0817.6,5.00,0.00,22.3,20.8,00.0,31.2,24.0,12.7,0000.0,0016.37,0010.68,0010.33
2023-01-04 01:25:00,,0817.6,5.01,0.00,22.3,20.9,00.0,31.1,24.0,12.7,0000.0,0016.37,0010.71,0010.36
2023-01-04 01:26:00,,0817.6,5.00,0.00,22.3,21.7,00.0,31.1,24.2,12.7,0000.0,0016.24,0010.65,0010.32
2023-01-04 01:27:00,,0817.6,4.99,0.00,22.4,22.6,00.0,31.1,24.4,12.6,0000.0,0015.82,0010.63,0010.29
2023-01-04 01:28:00,,0817.6,5.00,0.00,22.5,22.9,00.0,31.2,24.6,12.6,0000.3,0015.74,0010.63,0010.30
2023-01-04 01:29:00,,0817.7,5.00,0.00,22.6,22.5,00.0,31.2,24.5,12.5,0000.0,0015.94,0010.67,0010.31
2023-01-04 01:30:00,,0817.7,5.01,0.00,22.6,22.2,00.0,31.3,24.5,12.5,0000.0,0015.97,0010.66,0010.30
2023-01-04 01:31:00,,0817.7,5.00,0.00,22.6,21.9,00.0,31.3,24.4,12.5,0000.0,0016.64,0010.66,0010.32
2023-01-04 01:32:00,,0817.7,5.00,0.00,22.6,21.7,00.0,31.3,24.3,12.5,0001.3,0016.66,0010.69,0010.35
2023-01-04 01:33:00,,0817.6,5.01,0.00,22.6,21.5,00.0,31.3,24.3,12.6,0000.8,0016.49,0010.67,0010.35
2023-01-04 01:34:00,,0817.7,5.00,0.00,22.6,21.4,00.0,31.3,24.3,12.6,0001.0,0016.63,0010.62,0010.31
2023-01-04 01:35:00,,0817.6,4.99,0.00,22.5,21.3,00.0,31.3,24.3,12.6,0000.6,0016.61,0010.59,0010.28
2023-01-04 01:36:00,,0817.6,5.00,0.00,22.5,21.2,00.0,31.3,24.3,12.7,0000.4,0016.64,0010.58,0010.25
2023-01-04 01:37:00,,0817.7,5.00,0.00,22.5,21.1,00.0,31.3,24.3,12.7,-000.1,0017.08,0010.60,0010.25
2023-01-04 01:38:00,,0817.6,5.01,0.00,22.5,21.1,00.0,31.3,24.2,12.7,-000.1,0017.02,0010.50,0010.17
2023-01-04 01:39:00,,0817.7,5.01,0.00,22.5,21.0,00.0,31.3,24.2,12.7,0000.0,0016.90,0010.42,0010.08
2023-01-04 01:40:00,,0817.6,4.99,0.00,22.5,21.0,00.0,31.3,24.2,12.6,0000.2,0016.49,0010.28,0009.96
2023-01-04 01:41:00,,0817.5,5.00,0.00,22.4,21.0,00.0,31.3,24.2,12.6,0001.0,0016.05,0010.14,0009.82
2023-01-04 01:42:00,,0817.7,4.99,0.00,22.4,21.0,00.0,31.3,24.1,12.7,0001.4,0014.99,0009.97,0009.65
2023-01-04 01:43:00,,0817.8,5.00,0.00,22.4,21.0,00.0,31.3,24.1,12.7,0000.5,0014.46,0009.75,0009.44
2023-01-04 01:44:00,,0817.8,4.99,0.00,22.4,21.0,00.0,31.3,24.1,12.7,0000.0,0014.26,0009.60,0009.28
2023-01-04 01:45:00,,0817.7,5.01,0.00,22.4,20.9,00.0,31.3,24.1,12.7,0000.0,0013.92,0009.49,0009.17
2023-01-04 01:46:00,,0817.7,4.99,0.00,22.4,20.8,00.0,31.3,24.1,12.8,0000.0,0013.34,0009.35,0009.02
2023-01-04 01:47:00,,0817.7,5.00,0.00,22.4,20.8,00.0,31.2,24.1,12.8,0000.0,0013.07,0009.17,0008.84
2023-01-04 01:48:00,,0817.7,5.01,0.00,22.4,21.3,00.0,31.2,24.2,12.8,0000.0,0012.40,0009.00,0008.67
2023-01-04 01:49:00,,0817.8,5.00,0.00,22.5,22.3,00.0,31.2,24.4,12.7,0000.0,0012.28,0008.90,0008.54
2023-01-04 01:50:00,,0817.8,5.00,0.00,22.6,23.0,00.0,31.2,24.6,12.7,0000.0,0012.20,0008.79,0008.42
2023-01-04 01:51:00,,0817.9,4.99,0.00,22.7,22.7,00.0,31.3,24.6,12.6,-000.0,0012.09,0008.67,0008.32
2023-01-04 01:52:00,,0817.9,4.99,0.00,22.7,22.4,00.0,31.3,24.6,12.6,-000.1,0011.93,0008.57,0008.24
2023-01-04 01:53:00,,0817.9,5.00,0.00,22.7,22.1,00.0,31.3,24.5,12.6,0000.0,0011.84,0008.51,0008.20
2023-01-04 01:54:00,,0817.9,4.99,0.00,22.6,21.8,00.0,31.4,24.4,12.6,0000.0,0011.83,0008.52,0008.21
2023-01-04 01:55:00,,0817.9,5.00,0.00,22.6,21.6,00.0,31.4,24.4,12.6,0000.0,0011.78,0008.51,0008.21
2023-01-04 01:56:00,,0817.9,5.00,0.00,22.6,21.5,00.0,31.4,24.4,12.6,0000.0,0011.77,0008.49,0008.20
2023-01-04 01:57:00,,0817.9,5.00,0.00,22.6,21.4,00.0,31.4,24.4,12.6,0000.0,0011.67,0008.50,0008.22
2023-01-04 01:58:00,,0817.9,5.01,0.00,22.6,21.4,00.0,31.4,24.3,12.6,0000.0,0011.65,0008.53,0008.24
2023-01-04 01:59:00,,0817.8,5.01,0.00,22.6,21.3,00.0,31.4,24.3,12.6,0000.0,0011.63,0008.55,0008.29
